Location: Guadanolo
(41.9167°N, 12.9333°E)
Time: 13:56:24
(UTC+00:00)

Nadezhda 1 Rocket - Pass Details

Date: 24 December 2019
Orbit: 941 x 1006 km, 83.0° (Epoch: 21 January)

Event Time Altitude Azimuth Distance (km) Brightness Sun altitude
Rises 19:31:30 0° 339° (NNW) 3,616 7.3 -41.8°
Reaches altitude 10° 19:34:30 10° 325° (NW) 2,664 6.6 -42.3°
Enters shadow 19:38:52 23° 279° (W) 1,896 5.9 -43.1°
Exits shadow 19:42:17 15° 237° (WSW) 2,304 6.3 -43.7°
Drops below altitude 10° 19:43:38 10° 227° (SW) 2,657 6.6 -44.0°
Sets 19:46:38 0° 213° (SSW) 3,603 7.2 -44.5°
